This demonstration page uses our WeatherBlox Daily Observations layout. Learn more.

Left ArrowRight Arrow

39.29038, -76.61219

Hourly Observations for August 12, 2022

Temp ( °F °C ) Dew Point ( °F °C ) Humidity (%) Winds ( mph kmh ) Pressure ( in mb ) Visibility ( mi km ) Precip ( " mm )
12:54 am 00:54 Cloudy 76 24.4 62 16.7 62 62 NW 6 9 29.93 1014 10 16 0.00 0.00
1:54 am 01:54 Cloudy 74 23.3 62 16.7 66 66 WNW 3 6 29.94 1014 10 16 0.00 0.00
2:54 am 02:54 Cloudy 74 23.3 63 17.2 69 69 VRB 6 9 29.95 1014 10 16 0.00 0.00
3:54 am 03:54 Cloudy 74 23.3 62 16.7 66 66 NNW 6 9 29.96 1015 10 16 0.00 0.00
4:54 am 04:54 Mostly Cloudy 75 23.9 59 15 57 57 N 5 7 29.95 1014 10 16 0.00 0.00
5:54 am 05:54 Mostly Cloudy 73 22.8 57 13.9 57 57 VRB 3 6 29.98 1015 10 16 0.00 0.00
6:54 am 06:54 Mostly Cloudy 73 22.8 55 12.8 53 53 VRB 5 7 30.00 1016 10 16 0.00 0.00
7:54 am 07:54 Partly Cloudy 74 23.3 57 13.9 56 56 VRB 6 9 30.01 1016 10 16 0.00 0.00
8:54 am 08:54 Partly Cloudy 76 24.4 56 13.3 50 50 N 8 13 30.01 1016 10 16 0.00 0.00
9:54 am 09:54 Partly Cloudy 78 25.6 57 13.9 48 48 N 10 17 30.02 1017 10 16 0.00 0.00
10:54 am 10:54 Mostly Sunny 80 26.7 58 14.4 47 47 NNW 9 15 30.03 1017 10 16 0.00 0.00
11:54 am 11:54 Mostly Sunny 82 27.8 57 13.9 43 43 NNE 10 17 30.03 1017 10 16 0.00 0.00
12:54 pm 12:54 Partly Cloudy 83 28.3 53 11.7 36 36 NNW 5 7 30.03 1017 10 16 0.00 0.00
1:54 pm 13:54 Mostly Cloudy 84 28.9 55 12.8 37 37 NW 9 15 30.01 1016 10 16 0.00 0.00
2:54 pm 14:54 Mostly Cloudy 84 28.9 54 12.2 36 36 ENE 10 17 30.00 1016 10 16 0.00 0.00
3:54 pm 15:54 Partly Cloudy 83 28.3 55 12.8 38 38 NW 8 13 30.00 1016 10 16 0.00 0.00
4:54 pm 16:54 Mostly Sunny 84 28.9 52 11.1 33 33 NNW 7 11 30.00 1016 10 16 0.00 0.00
5:54 pm 17:54 Mostly Sunny 83 28.3 50 10 32 32 N 10 17 30.01 1016 10 16 0.00 0.00
6:54 pm 18:54 Mostly Sunny 82 27.8 47 8.3 29 29 N 10 17 30.01 1016 10 16 0.00 0.00
7:54 pm 19:54 Mostly Sunny 79 26.1 48 8.9 34 34 NW 3 6 30.02 1017 10 16 0.00 0.00
8:54 pm 20:54 Mostly Clear 73 22.8 52 11.1 48 48 WNW 3 6 30.03 1017 10 16 0.00 0.00
9:54 pm 21:54 Mostly Clear 69 20.6 55 12.8 61 61 WNW 5 7 30.04 1017 10 16 0.00 0.00
10:54 pm 22:54 Mostly Clear 64 17.8 56 13.3 75 75 NW 5 7 30.04 1017 10 16 0.00 0.00
11:54 pm 23:54 Clear 69 20.6 52 11.1 54 54 NNW 3 6 30.06 1018 10 16 0.00 0.00

Powered by AerisWeather